Location: Hamilton
(37.7830°S, 175.2830°E)
Time: 18:28:45
(UTC+13:00)

Timation 1 Rocket - Pass Details

Date: 24 January 2019
Orbit: 901 x 907 km, 70.0° (Epoch: 15 October)

Event Time Altitude Azimuth Distance (km) Brightness Sun altitude
Rises 23:22:49 0° 208° (SSW) 3,566 8.8 -25.5°
Reaches altitude 10° 23:25:21 10° 211° (SSW) 2,617 7.8 -25.8°
Maximum altitude 23:31:19 62° 289° (WNW) 1,026 4.6 -26.4°
Enters shadow 23:32:16 54° 330° (NNW) 1,095 4.5 -26.5°
